Location: Kitt Peak
(31.9639°N, 111.5992°W)
Time: 14:23:18
(UTC-07:00)

OTV 5 (USA 277) - Visible Passes

Search period start: 20 February 2018 00:00
Search period end: 02 March 2018 00:00
Orbit: 404 x 417 km, 43.0° (Epoch: 07 September)

Date Brightness Start Highest point End Pass type
(mag) Time Alt. Az. Time Alt. Az. Time Alt. Az.
20 Feb ? 04:55:45 19° ESE 04:55:45 19° ESE 04:57:08 10° E visible
20 Feb ? 06:28:32 10° W 06:31:35 37° NNW 06:34:40 10° NE visible
21 Feb ? 05:40:16 58° NW 05:40:28 60° NNW 05:43:42 10° NE visible
22 Feb ? 04:51:51 17° ENE 04:51:51 17° ENE 04:52:41 10° ENE visible
22 Feb ? 06:24:37 11° WNW 06:26:59 20° NNW 06:29:29 10° NNE visible
23 Feb ? 05:36:06 25° NNW 05:36:06 25° NNW 05:38:36 10° NE visible
24 Feb ? 04:47:30 11° NE 04:47:30 11° NE 04:47:42 10° NE visible
24 Feb ? 06:20:48 10° NW 06:22:33 14° N 06:24:18 10° NNE visible
25 Feb ? 05:31:35 16° N 05:31:35 16° N 05:33:23 10° NNE visible
26 Feb ? 06:16:51 10° NNW 06:18:12 12° N 06:19:34 10° NNE visible
27 Feb ? 05:26:53 12° N 05:26:54 12° N 05:28:21 10° NNE visible
28 Feb ? 06:12:05 10° NNW 06:13:52 14° N 06:15:39 10° NE visible
01 Mar ? 05:22:09 12° N 05:22:34 12° N 05:24:03 10° NNE visible
